AEE647 LFLL-LGAV

Flight info

Callsign AEE647
Flight time N/A
Altitude 23000
Route RISOR T47 GEMLA DCT VANAS DCT MEDAM DCT NITAM DCT MOGBO/N0445F370 DCT OLKIS DCT KUGIX DCT DIVKU DCT NOSTO UN7 NEMES
Aircraft A320/M-SDE3FGHIRWY/LB1

Departure

Time N/A
Airport Lyon Saint-Exupéry Airport (LFLL)

Arrival

Time 2026-05-05 15:10
Airport Athens Eleftherios Venizelos International Airport (LGAV)
Time Latitude Longitude Altitude Speed Heading
2026-05-05 13:23 44.14526 9.78055 35013 ft 431 kts 117°
2026-05-05 13:24 44.11786 9.85470 35010 ft 430 kts 117°
2026-05-05 13:24 44.09055 9.92863 35246 ft 436 kts 122°
2026-05-05 13:25 44.07639 9.96667 35051 ft 449 kts 123°
2026-05-05 13:25 44.06186 10.00565 34997 ft 459 kts 123°
2026-05-05 13:25 44.04210 10.05886 35001 ft 466 kts 123°
2026-05-05 13:26 44.01236 10.13909 35003 ft 468 kts 123°
2026-05-05 13:26 43.97252 10.24599 35014 ft 468 kts 122°
2026-05-05 13:27 43.94240 10.32614 35016 ft 469 kts 123°
2026-05-05 13:27 43.91726 10.39294 35003 ft 470 kts 122°
2026-05-05 13:28 43.88228 10.48728 35014 ft 471 kts 122°
2026-05-05 13:28 43.85238 10.56805 35002 ft 471 kts 122°
2026-05-05 13:29 43.82742 10.63511 35005 ft 471 kts 122°
2026-05-05 13:29 43.79235 10.72873 34997 ft 471 kts 122°
2026-05-05 13:30 43.76705 10.79618 34997 ft 472 kts 122°
2026-05-05 13:30 43.73682 10.87664 34997 ft 471 kts 122°
2026-05-05 13:31 43.70646 10.95698 34997 ft 471 kts 122°
2026-05-05 13:31 43.68115 11.02380 35000 ft 474 kts 123°
2026-05-05 13:32 43.64529 11.11826 35001 ft 476 kts 123°
2026-05-05 13:32 43.62494 11.17185 35000 ft 476 kts 123°
2026-05-05 13:33 43.58396 11.27941 34993 ft 476 kts 123°
2026-05-05 13:33 43.55302 11.35992 34998 ft 474 kts 123°
2026-05-05 13:34 43.52073 11.43882 34998 ft 472 kts 125°
2026-05-05 13:34 43.48704 11.51636 35004 ft 472 kts 126°
2026-05-05 13:35 43.45330 11.59388 35008 ft 472 kts 126°
2026-05-05 13:35 43.41988 11.67183 35009 ft 475 kts 126°
2026-05-05 13:36 43.38634 11.75014 35021 ft 475 kts 125°
2026-05-05 13:36 43.35280 11.82837 35020 ft 475 kts 125°
2026-05-05 13:37 43.31911 11.90649 35026 ft 475 kts 125°
2026-05-05 13:37 43.28529 11.98445 35029 ft 475 kts 126°
2026-05-05 13:38 43.25138 12.06226 35024 ft 475 kts 125°
2026-05-05 13:38 43.21743 12.13999 35037 ft 475 kts 125°
2026-05-05 13:39 43.18361 12.21752 35031 ft 475 kts 125°
2026-05-05 13:39 43.14964 12.29524 35053 ft 477 kts 125°
2026-05-05 13:40 43.11554 12.37307 35057 ft 478 kts 125°
2026-05-05 13:40 43.08129 12.45090 35059 ft 477 kts 125°
2026-05-05 13:41 43.04704 12.52851 35057 ft 476 kts 125°
2026-05-05 13:41 43.01269 12.60590 35055 ft 476 kts 125°
2026-05-05 13:42 42.97827 12.68329 35049 ft 477 kts 125°
2026-05-05 13:42 42.94393 12.76066 35046 ft 477 kts 125°
2026-05-05 13:43 42.90980 12.83737 35040 ft 475 kts 126°
2026-05-05 13:43 42.87537 12.91449 35035 ft 477 kts 125°
2026-05-05 13:44 42.84073 12.99152 35043 ft 477 kts 126°
2026-05-05 13:44 42.80604 13.06863 35040 ft 478 kts 126°
2026-05-05 13:45 42.77137 13.14573 35041 ft 478 kts 126°
2026-05-05 13:45 42.73662 13.22274 35034 ft 477 kts 126°
2026-05-05 13:46 42.70182 13.29956 35038 ft 477 kts 126°
2026-05-05 13:46 42.66688 13.37629 35028 ft 477 kts 126°
2026-05-05 13:47 42.63189 13.45294 35009 ft 477 kts 126°
2026-05-05 13:47 42.59686 13.52969 35020 ft 479 kts 126°
2026-05-05 13:48 42.56168 13.60656 35021 ft 479 kts 126°
2026-05-05 13:48 42.52656 13.68325 35016 ft 479 kts 126°
2026-05-05 13:49 42.49129 13.75991 35016 ft 479 kts 126°
2026-05-05 13:49 42.45621 13.83588 35013 ft 480 kts 126°
2026-05-05 13:50 42.42083 13.91244 35014 ft 479 kts 126°
2026-05-05 13:50 42.38539 13.98884 35013 ft 479 kts 126°
2026-05-05 13:51 42.34988 14.06516 35048 ft 480 kts 126°
2026-05-05 13:51 42.31426 14.14153 35050 ft 480 kts 127°
2026-05-05 13:52 42.27861 14.21783 35036 ft 481 kts 126°
2026-05-05 13:52 42.24287 14.29414 35033 ft 480 kts 126°
2026-05-05 13:53 42.20712 14.37023 35030 ft 480 kts 126°
2026-05-05 13:53 42.17134 14.44631 35006 ft 480 kts 126°
2026-05-05 13:54 42.13550 14.52231 35011 ft 481 kts 127°
2026-05-05 13:54 42.09950 14.59819 35008 ft 481 kts 127°
2026-05-05 13:55 42.06355 14.67400 35012 ft 481 kts 127°
2026-05-05 13:55 42.02751 14.74996 35011 ft 482 kts 127°
2026-05-05 13:56 41.99133 14.82585 35012 ft 482 kts 127°
2026-05-05 13:56 41.95512 14.90155 35010 ft 481 kts 127°
2026-05-05 13:57 41.91873 14.97734 35013 ft 485 kts 128°
2026-05-05 13:57 41.88210 15.05344 35010 ft 485 kts 128°
2026-05-05 13:58 41.84550 15.12953 35015 ft 486 kts 128°
2026-05-05 13:58 41.80914 15.20514 35016 ft 485 kts 128°
2026-05-05 13:59 41.75404 15.31893 35014 ft 487 kts 128°
2026-05-05 14:00 41.70446 15.42070 35045 ft 488 kts 128°
2026-05-05 14:00 41.66136 15.50920 35064 ft 488 kts 128°
2026-05-05 14:01 41.62425 15.58523 35077 ft 488 kts 128°
2026-05-05 14:01 41.58700 15.66100 35075 ft 489 kts 128°
2026-05-05 14:02 41.54954 15.73715 35083 ft 491 kts 128°
2026-05-05 14:02 41.51230 15.81285 35076 ft 492 kts 127°
2026-05-05 14:03 41.47470 15.88859 35057 ft 488 kts 128°
2026-05-05 14:03 41.44924 15.93876 35045 ft 488 kts 128°
2026-05-05 14:04 41.39830 16.03829 35057 ft 489 kts 128°
2026-05-05 14:04 41.36001 16.11349 35040 ft 490 kts 128°
2026-05-05 14:05 41.32168 16.18853 35046 ft 490 kts 128°
2026-05-05 14:05 41.28347 16.26294 35052 ft 490 kts 128°
2026-05-05 14:06 41.24478 16.33832 35050 ft 490 kts 128°
2026-05-05 14:06 41.20656 16.41284 35063 ft 491 kts 127°
2026-05-05 14:07 41.16802 16.48759 35066 ft 491 kts 127°
2026-05-05 14:07 41.12939 16.56220 35075 ft 490 kts 127°
2026-05-05 14:08 41.09070 16.63680 35081 ft 491 kts 127°
2026-05-05 14:08 41.05201 16.71125 35079 ft 491 kts 127°
2026-05-05 14:09 41.01319 16.78598 35082 ft 493 kts 127°
2026-05-05 14:09 40.97413 16.86085 35078 ft 494 kts 127°
2026-05-05 14:10 40.93501 16.93553 35054 ft 494 kts 127°
2026-05-05 14:10 40.89579 17.01016 35064 ft 494 kts 127°
2026-05-05 14:11 40.85654 17.08483 35073 ft 495 kts 126°
2026-05-05 14:11 40.81717 17.15953 35073 ft 496 kts 127°
2026-05-05 14:12 40.77770 17.23421 35093 ft 496 kts 127°
2026-05-05 14:12 40.73822 17.30880 35081 ft 496 kts 127°
2026-05-05 14:13 40.69894 17.38278 35081 ft 496 kts 127°
2026-05-05 14:13 40.65936 17.45720 35089 ft 497 kts 126°
2026-05-05 14:14 40.61963 17.53165 35083 ft 497 kts 126°
2026-05-05 14:14 40.57985 17.60599 35082 ft 497 kts 126°
2026-05-05 14:15 40.54003 17.68027 35091 ft 497 kts 126°
2026-05-05 14:15 40.50016 17.75448 35091 ft 497 kts 126°
2026-05-05 14:16 40.46025 17.82862 35091 ft 497 kts 126°
2026-05-05 14:16 40.42026 17.90264 35091 ft 497 kts 126°
2026-05-05 14:17 40.38022 17.97664 35106 ft 497 kts 126°
2026-05-05 14:17 40.34014 18.05056 35105 ft 497 kts 126°
2026-05-05 14:18 40.30001 18.12442 35112 ft 498 kts 126°
2026-05-05 14:18 40.26659 18.18566 35108 ft 498 kts 126°
2026-05-05 14:19 40.22632 18.25944 35112 ft 498 kts 126°
2026-05-05 14:19 40.17952 18.34508 35102 ft 498 kts 126°
2026-05-05 14:20 40.14571 18.40669 35104 ft 498 kts 126°
2026-05-05 14:20 40.10522 18.48018 35100 ft 498 kts 126°
2026-05-05 14:21 40.06474 18.55360 35105 ft 498 kts 126°
2026-05-05 14:21 40.02424 18.62699 35107 ft 498 kts 126°
2026-05-05 14:22 39.98368 18.70023 35104 ft 498 kts 126°
2026-05-05 14:22 39.94331 18.77292 35107 ft 498 kts 126°
2026-05-05 14:23 39.90240 18.84650 35112 ft 499 kts 126°
2026-05-05 14:23 39.86185 18.91911 35109 ft 499 kts 126°
2026-05-05 14:24 39.82099 18.99209 35124 ft 499 kts 126°
2026-05-05 14:24 39.78030 19.06513 35120 ft 499 kts 126°
2026-05-05 14:25 39.73955 19.13820 35132 ft 500 kts 126°
2026-05-05 14:25 39.69857 19.21126 35124 ft 500 kts 126°
2026-05-05 14:26 39.65761 19.28421 35118 ft 500 kts 126°
2026-05-05 14:26 39.61662 19.35717 35121 ft 500 kts 126°
2026-05-05 14:27 39.57562 19.43004 35122 ft 500 kts 126°
2026-05-05 14:27 39.53448 19.50284 35118 ft 502 kts 126°
2026-05-05 14:28 39.49305 19.57579 35127 ft 503 kts 126°
2026-05-05 14:28 39.45157 19.64860 35120 ft 503 kts 126°
2026-05-05 14:29 39.41016 19.72148 35131 ft 502 kts 125°
2026-05-05 14:29 39.36889 19.79411 35133 ft 501 kts 126°
2026-05-05 14:30 39.32739 19.86665 35129 ft 503 kts 125°
2026-05-05 14:30 39.28569 19.93916 35132 ft 503 kts 125°
2026-05-05 14:31 39.24430 20.01121 35130 ft 503 kts 125°
2026-05-05 14:31 39.20271 20.08365 35134 ft 503 kts 125°
2026-05-05 14:32 39.16098 20.15603 35138 ft 503 kts 125°
2026-05-05 14:32 39.11909 20.22841 35128 ft 504 kts 125°
2026-05-05 14:33 39.07733 20.30101 35129 ft 504 kts 125°
2026-05-05 14:33 39.03583 20.37364 35128 ft 504 kts 124°
2026-05-05 14:34 38.99428 20.44621 35137 ft 504 kts 125°
2026-05-05 14:34 38.95259 20.51861 35130 ft 505 kts 125°
2026-05-05 14:35 38.91077 20.59104 35120 ft 505 kts 125°
2026-05-05 14:35 38.87169 20.65854 35130 ft 506 kts 125°
2026-05-05 14:36 38.82944 20.73055 35132 ft 506 kts 126°
2026-05-05 14:36 38.78684 20.80257 35134 ft 507 kts 126°
2026-05-05 14:37 38.74437 20.87417 35128 ft 507 kts 125°
2026-05-05 14:37 38.70189 20.94565 35127 ft 508 kts 125°
2026-05-05 14:38 38.65915 21.01760 35110 ft 508 kts 125°
2026-05-05 14:38 38.61645 21.08942 35105 ft 508 kts 125°
2026-05-05 14:39 38.57356 21.16128 35115 ft 509 kts 126°
2026-05-05 14:39 38.53055 21.23315 35111 ft 509 kts 126°
2026-05-05 14:40 38.48739 21.30492 35108 ft 510 kts 126°
2026-05-05 14:40 38.44436 21.37664 35116 ft 509 kts 126°
2026-05-05 14:41 38.40132 21.44823 35131 ft 508 kts 126°
2026-05-05 14:41 38.35826 21.51953 35128 ft 507 kts 126°
2026-05-05 14:42 38.31550 21.59029 35123 ft 507 kts 126°
2026-05-05 14:42 38.27240 21.66137 35120 ft 507 kts 126°
2026-05-05 14:43 38.22920 21.73238 35126 ft 507 kts 126°
2026-05-05 14:43 38.18596 21.80323 35131 ft 507 kts 126°
2026-05-05 14:44 38.14265 21.87416 35098 ft 508 kts 126°
2026-05-05 14:44 38.09941 21.94498 35114 ft 507 kts 126°
2026-05-05 14:45 38.05610 22.01572 35118 ft 507 kts 126°
2026-05-05 14:45 38.01273 22.08621 35102 ft 507 kts 126°
2026-05-05 14:46 37.96936 22.15677 35124 ft 507 kts 126°
2026-05-05 14:46 37.92609 22.22709 35105 ft 506 kts 126°
2026-05-05 14:47 37.88263 22.29735 35048 ft 507 kts 126°
2026-05-05 14:47 37.86086 22.33245 34789 ft 506 kts 126°
2026-05-05 14:47 37.83911 22.36757 33903 ft 512 kts 126°
2026-05-05 14:48 37.81694 22.40336 32780 ft 519 kts 126°
2026-05-05 14:48 37.79461 22.43931 31678 ft 522 kts 126°
2026-05-05 14:48 37.77207 22.47552 30670 ft 526 kts 126°
2026-05-05 14:48 37.74951 22.51168 30066 ft 521 kts 126°
2026-05-05 14:49 37.72716 22.54749 29294 ft 517 kts 126°
2026-05-05 14:49 37.70697 22.58385 28646 ft 508 kts 117°
2026-05-05 14:49 37.69114 22.62319 28012 ft 498 kts 110°
2026-05-05 14:49 37.67704 22.66290 27368 ft 493 kts 110°
2026-05-05 14:50 37.66308 22.70219 26743 ft 488 kts 110°
2026-05-05 14:50 37.64924 22.74105 26113 ft 483 kts 110°
2026-05-05 14:50 37.63558 22.77930 25505 ft 478 kts 110°
2026-05-05 14:50 37.62195 22.81737 24892 ft 474 kts 111°
2026-05-05 14:51 37.60842 22.85508 24311 ft 470 kts 111°
2026-05-05 14:51 37.59499 22.89245 23738 ft 466 kts 111°
2026-05-05 14:51 37.58166 22.92943 23121 ft 460 kts 111°
2026-05-05 14:51 37.56853 22.96581 22606 ft 453 kts 111°
2026-05-05 14:52 37.55554 23.00176 22064 ft 448 kts 111°
2026-05-05 14:52 37.54413 23.03767 21767 ft 433 kts 101°
2026-05-05 14:52 37.53959 23.07418 21669 ft 412 kts 86°
2026-05-05 14:52 37.54214 23.10898 21583 ft 388 kts 71°
2026-05-05 14:53 37.55052 23.14059 21003 ft 379 kts 58°
2026-05-05 14:53 37.56470 23.16831 20251 ft 375 kts 44°
2026-05-05 14:53 37.58284 23.19169 19695 ft 372 kts 39°
2026-05-05 14:53 37.60118 23.21461 19180 ft 371 kts 40°
2026-05-05 14:54 37.61930 23.23766 18678 ft 369 kts 40°
2026-05-05 14:54 37.63720 23.26069 18175 ft 366 kts 41°
2026-05-05 14:54 37.65496 23.28360 17646 ft 363 kts 41°
2026-05-05 14:54 37.67253 23.30624 17153 ft 359 kts 41°
2026-05-05 14:55 37.68988 23.32855 16660 ft 355 kts 41°
2026-05-05 14:55 37.70711 23.35070 16171 ft 352 kts 41°
2026-05-05 14:55 37.72415 23.37259 15688 ft 348 kts 42°
2026-05-05 14:55 37.74106 23.39429 15200 ft 345 kts 42°
2026-05-05 14:56 37.75715 23.41660 14716 ft 344 kts 49°
2026-05-05 14:56 37.77030 23.44181 14270 ft 344 kts 58°
2026-05-05 14:56 37.78021 23.46928 13791 ft 343 kts 64°
2026-05-05 14:56 37.78922 23.49704 13253 ft 340 kts 64°
2026-05-05 14:57 37.79820 23.52460 12714 ft 338 kts 64°
2026-05-05 14:57 37.80714 23.55206 12183 ft 336 kts 64°
2026-05-05 14:57 37.81600 23.57936 11664 ft 334 kts 65°
2026-05-05 14:57 37.82475 23.60643 11191 ft 332 kts 65°
2026-05-05 14:58 37.83346 23.63341 10708 ft 330 kts 65°
2026-05-05 14:58 37.84211 23.66017 10230 ft 328 kts 65°
2026-05-05 14:58 37.85071 23.68674 9916 ft 321 kts 65°
2026-05-05 14:58 37.85900 23.71237 9781 ft 309 kts 65°
2026-05-05 14:59 37.86697 23.73710 9649 ft 298 kts 65°
2026-05-05 14:59 37.87463 23.76095 9489 ft 289 kts 65°
2026-05-05 14:59 37.88216 23.78437 9197 ft 286 kts 65°
2026-05-05 14:59 37.88958 23.80761 8853 ft 284 kts 66°
2026-05-05 15:00 37.89623 23.83108 8485 ft 283 kts 68°
2026-05-05 15:00 37.90031 23.84678 8257 ft 283 kts 69°
2026-05-05 15:00 37.90820 23.87845 7810 ft 281 kts 70°
2026-05-05 15:00 37.91396 23.90178 7474 ft 280 kts 70°
2026-05-05 15:01 37.91979 23.92524 7171 ft 279 kts 69°
2026-05-05 15:01 37.92567 23.94853 6852 ft 277 kts 69°
2026-05-05 15:01 37.93158 23.97167 6539 ft 276 kts 69°
2026-05-05 15:01 37.93749 23.99470 6219 ft 274 kts 69°
2026-05-05 15:02 37.94338 24.01771 5875 ft 275 kts 69°
2026-05-05 15:02 37.94926 24.04067 5529 ft 274 kts 69°
2026-05-05 15:02 37.95515 24.06359 5192 ft 273 kts 68°
2026-05-05 15:02 37.96457 24.08382 4878 ft 264 kts 42°
2026-05-05 15:03 37.97829 24.09913 4498 ft 263 kts 36°
2026-05-05 15:03 37.99259 24.11348 4157 ft 262 kts 36°
2026-05-05 15:03 38.00676 24.12740 3992 ft 261 kts 35°
2026-05-05 15:03 38.02118 24.14146 4001 ft 262 kts 35°
2026-05-05 15:04 38.03568 24.15553 4004 ft 263 kts 35°
2026-05-05 15:04 38.05021 24.16956 4003 ft 262 kts 33°
2026-05-05 15:04 38.06667 24.17853 4003 ft 258 kts
2026-05-05 15:04 38.08425 24.17617 4001 ft 256 kts 338°
2026-05-05 15:05 38.10933 24.14495 4001 ft 258 kts 302°
2026-05-05 15:05 38.11497 24.12344 3998 ft 261 kts 274°
2026-05-05 15:05 38.11132 24.10103 3999 ft 265 kts 242°
2026-05-05 15:06 38.09823 24.08460 3999 ft 266 kts 214°
2026-05-05 15:06 38.08277 24.07223 3682 ft 262 kts 215°
2026-05-05 15:06 38.06815 24.05892 3234 ft 254 kts 218°
2026-05-05 15:06 38.05439 24.04567 2896 ft 243 kts 218°
2026-05-05 15:07 38.04114 24.03295 2589 ft 236 kts 217°
2026-05-05 15:07 38.02842 24.02080 2285 ft 223 kts 217°
2026-05-05 15:07 38.01637 24.00929 2018 ft 209 kts 217°
2026-05-05 15:07 38.00892 24.00218 1834 ft 199 kts 217°
2026-05-05 15:08 37.99819 23.99198 1652 ft 185 kts 217°
2026-05-05 15:08 37.98822 23.98260 1394 ft 175 kts 216°
2026-05-05 15:08 37.97888 23.97349 1127 ft 164 kts 217°
2026-05-05 15:08 37.97011 23.96487 883 ft 156 kts 216°
2026-05-05 15:09 37.96174 23.95694 690 ft 142 kts 214°
2026-05-05 15:09 37.95409 23.94985 507 ft 139 kts 214°
2026-05-05 15:09 37.94630 23.94246 335 ft 140 kts 214°
2026-05-05 15:09 37.93919 23.93574 294 ft 112 kts 217°
2026-05-05 15:10 37.93432 23.93111 291 ft 63 kts 216°
2026-05-05 15:10 37.93218 23.92912 292 ft 17 kts 213°
2026-05-05 15:10 37.93103 23.92851 291 ft 19 kts 195°
2026-05-05 15:10 37.92980 23.92824 296 ft 16 kts 187°
2026-05-05 15:11 37.92960 23.92821 298 ft 0 kts 187°
2026-05-05 15:12 37.92954 23.92820 297 ft 4 kts 187°
2026-05-05 15:12 37.92934 23.92843 299 ft 4 kts 118°
2026-05-05 15:12 37.92926 23.92905 299 ft 9 kts 71°
2026-05-05 15:12 37.92992 23.92972 300 ft 15 kts 36°
2026-05-05 15:13 37.93088 23.93062 300 ft 19 kts 36°
2026-05-05 15:13 37.93205 23.93173 300 ft 23 kts 37°
2026-05-05 15:13 37.93323 23.93284 302 ft 18 kts 37°
2026-05-05 15:13 37.93412 23.93369 301 ft 11 kts 37°
2026-05-05 15:14 37.93428 23.93442 299 ft 10 kts 118°
2026-05-05 15:14 37.93377 23.93529 300 ft 14 kts 127°
2026-05-05 15:14 37.93310 23.93642 301 ft 19 kts 127°
2026-05-05 15:14 37.93224 23.93785 301 ft 22 kts 127°
2026-05-05 15:15 37.93134 23.93935 301 ft 20 kts 128°
2026-05-05 15:15 37.93092 23.94041 302 ft 10 kts 80°
2026-05-05 15:15 37.93154 23.94111 304 ft 14 kts 36°
2026-05-05 15:15 37.93243 23.94193 302 ft 16 kts 36°
2026-05-05 15:16 37.93286 23.94281 303 ft 12 kts 104°
2026-05-05 15:16 37.93229 23.94380 301 ft 16 kts 127°
2026-05-05 15:16 37.93161 23.94494 301 ft 11 kts 127°
2026-05-05 15:16 37.93191 23.94567 301 ft 14 kts 32°
2026-05-05 15:17 37.93283 23.94657 303 ft 19 kts 37°
2026-05-05 15:17 37.93392 23.94761 302 ft 18 kts 37°
2026-05-05 15:17 37.93501 23.94866 302 ft 22 kts 37°
2026-05-05 15:17 37.93624 23.94983 301 ft 23 kts 37°
2026-05-05 15:18 37.93750 23.95103 302 ft 21 kts 37°
2026-05-05 15:18 37.93860 23.95209 303 ft 16 kts 37°
2026-05-05 15:18 37.93940 23.95258 300 ft 11 kts 349°
2026-05-05 15:18 37.93985 23.95193 302 ft 6 kts 304°
2026-05-05 15:19 37.94014 23.95141 303 ft 8 kts 306°
2026-05-05 15:19 37.94048 23.95086 301 ft 7 kts 316°
2026-05-05 15:19 37.94091 23.95102 302 ft 8 kts 37°
2026-05-05 15:19 37.94114 23.95125 301 ft 2 kts 38°
2026-05-05 15:20 37.94119 23.95130 302 ft 0 kts 38°